Location: Siloam Springs
(36.1881°N, 94.5403°W)
Time: 08:33:51
(UTC-06:00)

BlueWalker 3 - Visible Passes

Search period start: 27 February 2024 00:00
Search period end: 08 March 2024 00:00
Orbit: 486 x 500 km, 53.2° (Epoch: 26 February)

Date Brightness Start Highest point End Pass type
(mag) Time Alt. Az. Time Alt. Az. Time Alt. Az.
29 Feb 4.5 20:21:52 10° NNW 20:22:36 14° NNW 20:22:36 14° NNW visible
01 Mar 3.8 19:58:00 10° NNW 19:59:52 19° N 19:59:52 19° N visible
02 Mar 3.4 19:34:07 10° NNW 19:37:06 22° NNE 19:37:10 22° NE visible
03 Mar 3.4 19:10:13 10° NNW 19:13:10 21° NNE 19:14:33 17° ENE visible
03 Mar 4.6 20:47:58 10° WNW 20:49:03 18° WNW 20:49:03 18° WNW visible
04 Mar 3.5 18:46:18 10° NNW 18:49:12 20° NNE 18:52:01 10° E visible
04 Mar 3.4 20:24:01 10° WNW 20:26:32 35° W 20:26:32 35° W visible
05 Mar 2.4 20:00:02 10° NW 20:03:42 52° SW 20:04:07 49° SSW visible
06 Mar 2.4 19:36:02 10° NW 19:39:43 55° SW 19:41:51 23° SSE visible
07 Mar 2.4 19:12:01 10° NW 19:15:43 58° SW 19:19:24 10° SSE visible
